Regional Weather Roundup
Issued by NWS

Home | Current Version | Previous Version | Text Only | Print | Product List | Glossary Off
Versions: 1 2 3 4 5 6 7 8 9 10 11 12 13 14 15 16 17 18 19 20 21 22 23 24 25 26 27 28 29 30 31 32 33 34 35 36 37 38 39 40 41 42 43 44 45 46 47 48 49 50

000
ASUS43 KIND 190009
RWRIN

WEATHER ROUNDUP FOR INDIANA
NATIONAL WEATHER SERVICE INDIANAPOLIS IN
700 PM EST THU DEC 18 2014

NOTE: "FAIR" INDICATES FEW OR NO CLOUDS BELOW 12,000 FEET WITH NO
SIGNIFICANT WEATHER AND/OR OBSTRUCTIONS TO VISIBILITY.

* - STATION DOES NOT REPORT WEATHER SUCH AS PRECIPITATION OR FOG.

+ - STATION NOT QUALITY CONTROLLED BY THE NATIONAL WEATHER SERVICE.
    USE DATA WITH CAUTION...ESPECIALLY DEWPOINT AND RELATIVE
    HUMIDITY OBSERVATIONS.

INZ001>003-010>013-019-020-190100-
NORTHWEST INDIANA

CITY           SKY/WX    TMP DP  RH WIND       PRES   REMARKS
GARY /AIRPORT/ CLOUDY    28  18  64 CALM      30.25S
KNOX *+        CLOUDY    27  19  71 CALM      30.23S
LA PORTE +     MOCLDY    27  22  80 W5        30.24S WCI  22
6HR MIN TEMP:  27; 6HR MAX TEMP:  29;

MICHIGAN CITY+ CLOUDY    28  18  64 SW3       30.25R
MONTICELLO +   CLOUDY    26  21  81 NW3       30.24R
RENSSELAER +   CLOUDY    28  23  80 W3        30.25R
VALPARAISO     CLOUDY    23  18  81 W3        30.25R
6HR MIN TEMP:  21; 6HR MAX TEMP:  27;


$$

LMZ046-743>745-190100-
SOUTHERN LAKE MICHIGAN

STATION/POSITION TIME  TEMP WIND        PRES
                       AIR  DIR/SP/G
                 (UTC) (F)  (DEG/KT/KT) (MB)

$$

INZ004-005-014>016-021>024-190100-
NORTH CENTRAL INDIANA

CITY           SKY/WX    TMP DP  RH WIND       PRES   REMARKS
GOSHEN         CLOUDY    27  22  81 W7        30.22R WCI  19
6HR MIN TEMP:  27; 6HR MAX TEMP:  28;

LOGANSPORT +   CLOUDY    27  21  80 NW3       30.25R
PERU/GRISSOM   CLOUDY    26  25  95 W3        30.23R
6HR MIN TEMP:  26; 6HR MAX TEMP:  27; 6HR PCP: TRACE;

ROCHESTER +    MOCLDY    28  23  80 CALM      30.24R
SOUTH BEND     CLOUDY    28  21  75 W6        30.23S WCI  22
6HR MIN TEMP:  27; 6HR MAX TEMP:  28;

WARSAW +       CLOUDY    28  21  74 W5        30.23R WCI  23

$$

INZ006>009-017-018-025>027-190100-
NORTHEAST INDIANA

CITY           SKY/WX    TMP DP  RH WIND       PRES   REMARKS
ANGOLA *+      CLOUDY    27  25  93 W6        30.19R WCI  20
AUBURN +       CLOUDY    28  23  80 W7        30.22R WCI  21
FORT WAYNE     CLOUDY    27  21  78 W6        30.23R WCI  20
6HR MIN TEMP:  27; 6HR MAX TEMP:  28; 6HR PCP: TRACE;

HUNTINGTON +   MOCLDY    26  21  82 CALM      30.22S
6HR MIN TEMP:  25; 6HR MAX TEMP:  26;


$$

INZ028-029-035-036-043>045-051>053-190100-
WEST CENTRAL INDIANA

CITY           SKY/WX    TMP DP  RH WIND       PRES   REMARKS
GREENCASTLE +  CLOUDY    28  19  69 CALM      30.24S
LAFAYETTE      MOCLDY    26  21  81 CALM      30.25S
6HR MIN TEMP:  25; 6HR MAX TEMP:  27;

TERRE HAUTE    CLOUDY    30  21  69 N5        30.25R WCI  25
6HR MIN TEMP:  29; 6HR MAX TEMP:  30;


$$

INZ030>032-037>040-046>048-054>057-064-065-190100-
CENTRAL INDIANA

CITY           SKY/WX    TMP DP  RH WIND       PRES   REMARKS
CP ATTERBURY + CLOUDY    30  23  74 MISG      30.25R
COLUMBUS       MOCLDY    28  25  86 CALM      30.25
FRANKFORT +    MOCLDY    28  23  82 W3        30.24S
INDIANAPOLIS   CLOUDY    26  21  81 W5        30.22S WCI  20
6HR MIN TEMP:  26; 6HR MAX TEMP:  27; 6HR PCP: TRACE;

-EAGLE CREEK   CLOUDY    27  21  78 CALM      30.23R
6HR MIN TEMP:  26; 6HR MAX TEMP:  28;

KOKOMO *+      MOCLDY    27  19  74 NW6       30.24R WCI  20
MARION +       CLOUDY    26  24  91 NW5       30.24R FOG     WCI  20
MT COMFORT *+  CLOUDY    27  23  86 CALM      30.23R
SHELBYVILLE    CLOUDY    29  21  72 CALM      30.23R
6HR MIN TEMP:  28; 6HR MAX TEMP:  29; 6HR PCP: TRACE;

ZIONSVILLE +   CLOUDY    28  21  76 CALM      30.23S
6HR MIN TEMP:  27; 6HR MAX TEMP:  28;


$$

INZ033-034-041-042-049-050-058-059-190100-
EAST CENTRAL INDIANA

CITY           SKY/WX    TMP DP  RH WIND       PRES   REMARKS
MUNCIE         CLOUDY    27  21  78 W5        30.22R WCI  22
6HR MIN TEMP:  27; 6HR MAX TEMP:  28;


$$

INZ060-061-067>069-081>083-085>088-190100-
SOUTHWEST INDIANA

CITY           SKY/WX    TMP DP  RH WIND       PRES   REMARKS
EVANSVILLE     CLOUDY    34  25  69 N3        30.25S
6HR MIN TEMP:  33; 6HR MAX TEMP:  35;

HUNTINGBURG *+ CLOUDY    32  23  69 N3        30.24S
6HR MIN TEMP:  30; 6HR MAX TEMP:  34;

WASHINGTON +   CLOUDY    30  23  74 N3        30.25R
6HR MIN TEMP:  29; 6HR MAX TEMP:  31;


$$

INZ062-063-066-070>080-084-089>092-190100-
SOUTH CENTRAL AND SOUTHEAST INDIANA

CITY           SKY/WX    TMP DP  RH WIND       PRES   REMARKS
BLOOMINGTON    CLOUDY    29  22  75 CALM      30.23R
6HR MIN TEMP:  28; 6HR MAX TEMP:  30;


$$




USA.gov is the U.S. government's official web portal to all federal, state and local government web resources and services.